Location: Cicognara
(44.9500°N, 10.4667°E)
Time: 13:49:07
(UTC+00:00)

Cosmos 2360 Rocket - Pass Details

Date: 20 June 2021
Orbit: 835 x 843 km, 71.0° (Epoch: 02 August)

Event Time Altitude Azimuth Distance (km) Brightness Sun altitude
Rises 20:38:49 0° 219° (SW) 3,382 5.2 -12.4°
Reaches altitude 10° 20:41:19 10° 224° (SW) 2,450 4.5 -12.7°
Maximum altitude 20:46:48 52° 301° (WNW) 1,033 3.1 -13.2°
Drops below altitude 10° 20:52:18 10° 18° (NNE) 2,459 5.2 -13.8°
Sets 20:54:49 0° 23° (NNE) 3,396 5.8 -14.0°
